Flag for Germany Weather past 2 weeks in Alsfeld, Hesse, Germany

Now
48 °F

Cool.


Feels Like: 46 °F
Forecast: 38 / 53 °F
Wind: 6 mph from Northwest

Location: Fritzlar

Current Time: Oct 23, 2014 at 3:44:37 AM

Latest Report: Oct 23, 2014 at 3:00 AM


Visibility: 11 mi

Pressure: 30.13 "Hg

Humidity: 68%

Dew point: 38 °F

Location of AlsfeldLocation

Historic Weather in Alsfeld — Graph

°F

Alsfeld temperature yesterday

Maximum temperature yesterday: 50 °F (at 5:00 PM)
Minimum temperature yesterday: 43 °F (at 5:00 AM)
Average temperature yesterday: 47 °F

Past Weeks' High & Low Weather Summary

 TemperatureHumidityPressure
High66 °F (Oct 19, 5:00 PM)99% (Oct 12, 9:00 AM)30.21 "Hg (Oct 12, 9:00 AM)
Low43 °F (Oct 22, 5:00 AM)63% (Oct 15, 3:00 PM)29.50 "Hg (Oct 21, 6:00 PM)
Average55 °F88%29.89 "Hg
* Reported Oct 8 2:00 AM — Oct 23 2:00 AM, Alsfeld, Weather by CustomWeather, © 2014

Note: Actual official high and low records may vary slightly from our data, if they occured in-between our weather recording intervals... More about our weather records

Advertising

Alsfeld weather history for previous 24 hours

 ConditionsComfort  
Time TempWeatherWind HumidityBarometerVisibility
2:00 AM
Oct 23
49 °FCool.8 mph66%30.11 "Hg11 mi
1:00 AM48 °FCool.7 mph69%30.11 "Hg10 mi
12:00 AM49 °FCool.7 mph69%30.11 "Hg9 mi
11:00 PM
Oct 22
48 °FCool.6 mph70%30.10 "Hg9 mi
10:00 PM49 °FCool.6 mph70%30.08 "Hg9 mi
9:00 PM49 °FCool.8 mph70%30.05 "Hg9 mi
8:00 PM49 °FCool.8 mph69%30.02 "Hg9 mi
7:00 PM49 °FCool.10 mph67%29.98 "Hg11 mi
6:00 PM50 °FCool.10 mph68%29.94 "Hg11 mi
5:00 PM50 °FCool.12 mph70%29.90 "Hg10 mi
4:00 PM49 °FCool.10 mph72%29.89 "Hg10 mi
3:00 PM48 °FCool.9 mph75%29.88 "Hg9 mi
2:00 PM47 °FCool.7 mph78%29.88 "Hg7 mi
1:00 PM47 °FCool.6 mph76%29.90 "Hg8 mi
12:00 PM48 °FCool.7 mph74%29.90 "Hg14 mi
11:00 AM46 °FCool.6 mph77%29.90 "Hg10 mi
10:00 AM46 °FCool.6 mph76%29.90 "Hg11 mi
9:00 AM46 °FCool.3 mph78%29.88 "Hg13 mi
8:00 AM46 °FCool.5 mph73%29.84 "Hg16 mi
7:00 AM46 °FCool.5 mph77%29.83 "Hg16 mi
6:00 AM44 °FQuite cool.3 mph83%29.80 "Hg22 mi
5:00 AM43 °FQuite cool.6 mph85%29.80 "Hg5 mi
4:00 AM45 °FCool.6 mph81%29.80 "Hg5 mi
3:00 AM46 °FCool.6 mph76%29.80 "Hg25 mi
Weather by CustomWeather, © 2014

See weather overviewHow to use our weather pages